| time (UTC) | temp F | wind direction | speed MPH | gust MPH | rain 1hr in | rain 24hr in | rain mn in | humidity % | barometer mb |
| 20260831213858 | 71 | 29 | 13.0 | 16.0 | 0.00 | 0.00 | 0.00 | 88 | 1025.6 |
| 20260831213355 | 70 | 29 | 13.0 | 16.0 | 0.00 | 0.00 | 0.00 | 87 | 1025.7 |
| 20260831212854 | 70 | 29 | 13.0 | 16.0 | 0.00 | 0.00 | 0.00 | 88 | 1025.8 |
| 20260831212351 | 70 | 29 | 13.0 | 16.0 | 0.00 | 0.00 | 0.00 | 87 | 1025.7 |
| 20260831211850 | 70 | 29 | 13.0 | 16.0 | 0.00 | 0.00 | 0.00 | 88 | 1025.7 |
| 20260831211350 | 70 | 29 | 13.0 | 16.0 | 0.00 | 0.00 | 0.00 | 87 | 1025.9 |
| 20260831210850 | 71 | 29 | 13.0 | 16.0 | 0.00 | 0.00 | 0.00 | 87 | 1025.7 |
| 20260831210346 | 71 | 29 | 13.0 | 16.0 | 0.00 | 0.00 | 0.00 | 87 | 1025.6 |
| 20260831205841 | 71 | 29 | 13.0 | 16.0 | 0.00 | 0.00 | 0.00 | 85 | 1025.8 |
| 20260831205337 | 71 | 29 | 13.0 | 16.0 | 0.00 | 0.00 | 0.00 | 85 | 1025.7 |
| 20260831204832 | 71 | 29 | 13.0 | 16.0 | 0.00 | 0.00 | 0.00 | 85 | 1025.7 |
| 20260831204330 | 71 | 29 | 13.0 | 16.0 | 0.00 | 0.00 | 0.00 | 84 | 1025.6 |
| 20260831203829 | 71 | 29 | 13.0 | 16.0 | 0.00 | 0.00 | 0.00 | 82 | 1025.7 |
| 20260831203324 | 71 | 29 | 13.0 | 16.0 | 0.00 | 0.00 | 0.00 | 83 | 1025.8 |
| 20260831202822 | 71 | 29 | 13.0 | 16.0 | 0.00 | 0.00 | 0.00 | 82 | 1025.7 |
| 20260831202318 | 72 | 29 | 13.0 | 16.0 | 0.00 | 0.00 | 0.00 | 82 | 1025.7 |
| 20260831201818 | 72 | 29 | 13.0 | 16.0 | 0.00 | 0.00 | 0.00 | 81 | 1025.6 |
| 20260831201316 | 72 | 29 | 13.0 | 16.0 | 0.00 | 0.00 | 0.00 | 81 | 1025.7 |
| 20260831200812 | 72 | 29 | 13.0 | 16.0 | 0.00 | 0.00 | 0.00 | 81 | 1025.8 |
| 20260831200307 | 72 | 29 | 13.0 | 16.0 | 0.00 | 0.00 | 0.00 | 80 | 1025.8 |
| 20260831195802 | 72 | 29 | 13.0 | 16.0 | 0.00 | 0.00 | 0.00 | 81 | 1026.0 |
| 20260831195258 | 72 | 29 | 13.0 | 16.0 | 0.00 | 0.00 | 0.00 | 80 | 1026.2 |
| 20260831194748 | 72 | 29 | 13.0 | 16.0 | 0.00 | 0.00 | 0.00 | 78 | 1026.4 |
| 20260831194244 | 73 | 29 | 13.0 | 16.0 | 0.00 | 0.00 | 0.00 | 77 | 1026.3 |
| 20260831193742 | 74 | 29 | 13.0 | 16.0 | 0.00 | 0.00 | 0.00 | 76 | 1026.4 |
| 20260831193238 | 74 | 29 | 13.0 | 16.0 | 0.00 | 0.00 | 0.00 | 76 | 1026.4 |
| 20260831192733 | 74 | 29 | 13.0 | 16.0 | 0.00 | 0.00 | 0.00 | 73 | 1026.4 |
| 20260831192228 | 75 | 29 | 13.0 | 16.0 | 0.00 | 0.00 | 0.00 | 72 | 1026.5 |
| 20260831191724 | 75 | 29 | 13.0 | 16.0 | 0.00 | 0.00 | 0.00 | 72 | 1026.5 |
| 20260831191220 | 75 | 29 | 13.0 | 16.0 | 0.00 | 0.00 | 0.00 | 68 | 1026.6 |
| 20260831190715 | 78 | 29 | 13.0 | 16.0 | 0.00 | 0.00 | 0.00 | 69 | 1026.6 |
| 20260831190214 | 76 | 29 | 13.0 | 16.0 | 0.00 | 0.00 | 0.00 | 66 | 1026.8 |
| 20260831185709 | 75 | 29 | 13.0 | 16.0 | 0.00 | 0.00 | 0.00 | 71 | 1026.9 |
| 20260831185205 | 74 | 29 | 13.0 | 16.0 | 0.00 | 0.00 | 0.00 | 68 | 1026.8 |
| 20260831184704 | 74 | 29 | 13.0 | 16.0 | 0.00 | 0.00 | 0.00 | 71 | 1026.8 |
| 20260831184200 | 75 | 29 | 13.0 | 16.0 | 0.00 | 0.00 | 0.00 | 72 | 1026.6 |
| 20260831183659 | 75 | 29 | 13.0 | 16.0 | 0.00 | 0.00 | 0.00 | 71 | 1026.6 |
| 20260831183159 | 75 | 29 | 13.0 | 16.0 | 0.00 | 0.00 | 0.00 | 72 | 1026.6 |
| 20260831182658 | 75 | 29 | 13.0 | 16.0 | 0.00 | 0.00 | 0.00 | 71 | 1026.6 |
| 20260831182154 | 74 | 29 | 13.0 | 16.0 | 0.00 | 0.00 | 0.00 | 69 | 1026.8 |
| 20260831181649 | 74 | 29 | 13.0 | 16.0 | 0.00 | 0.00 | 0.00 | 73 | 1026.8 |
| 20260831181143 | 74 | 29 | 13.0 | 16.0 | 0.00 | 0.00 | 0.00 | 70 | 1027.0 |
| 20260831180638 | 74 | 29 | 13.0 | 16.0 | 0.00 | 0.00 | 0.00 | 75 | 1027.0 |
| 20260831180133 | 75 | 29 | 13.0 | 16.0 | 0.00 | 0.00 | 0.00 | 75 | 1027.2 |
| 20260831175627 | 75 | 29 | 13.0 | 16.0 | 0.00 | 0.00 | 0.00 | 70 | 1027.2 |
| 20260831175125 | 75 | 29 | 13.0 | 16.0 | 0.00 | 0.00 | 0.00 | 73 | 1027.2 |
| 20260831174620 | 75 | 29 | 13.0 | 16.0 | 0.00 | 0.00 | 0.00 | 69 | 1027.2 |
| 20260831174119 | 75 | 29 | 13.0 | 16.0 | 0.00 | 0.00 | 0.00 | 69 | 1027.3 |
| 20260831173618 | 76 | 29 | 13.0 | 16.0 | 0.00 | 0.00 | 0.00 | 68 | 1027.2 |
| 20260831173115 | 76 | 29 | 13.0 | 16.0 | 0.00 | 0.00 | 0.00 | 68 | 1027.2 |
| 20260831172614 | 77 | 29 | 13.0 | 16.0 | 0.00 | 0.00 | 0.00 | 66 | 1027.2 |
| 20260831172109 | 76 | 29 | 13.0 | 16.0 | 0.00 | 0.00 | 0.00 | 70 | 1027.3 |
| 20260831171604 | 76 | 29 | 13.0 | 16.0 | 0.00 | 0.00 | 0.00 | 68 | 1027.1 |
| 20260831171102 | 77 | 29 | 13.0 | 16.0 | 0.00 | 0.00 | 0.00 | 68 | 1026.9 |
| 20260831170557 | 77 | 29 | 13.0 | 16.0 | 0.00 | 0.00 | 0.00 | 68 | 1027.2 |
| 20260831170055 | 76 | 29 | 13.0 | 16.0 | 0.00 | 0.00 | 0.00 | 67 | 1027.0 |
| 20260831165554 | 77 | 29 | 13.0 | 16.0 | 0.00 | 0.00 | 0.00 | 69 | 1027.1 |
| 20260831165051 | 76 | 29 | 13.0 | 16.0 | 0.00 | 0.00 | 0.00 | 67 | 1027.1 |
| 20260831164547 | 78 | 29 | 13.0 | 16.0 | 0.00 | 0.00 | 0.00 | 65 | 1027.0 |
| 20260831164043 | 78 | 29 | 13.0 | 16.0 | 0.00 | 0.00 | 0.00 | 66 | 1027.2 |
| 20260831163543 | 78 | 29 | 13.0 | 16.0 | 0.00 | 0.00 | 0.00 | 63 | 1027.4 |
| 20260831163038 | 78 | 29 | 13.0 | 16.0 | 0.00 | 0.00 | 0.00 | 64 | 1027.3 |
| 20260831162537 | 77 | 29 | 13.0 | 16.0 | 0.00 | 0.00 | 0.00 | 65 | 1027.4 |
| 20260831162035 | 77 | 29 | 13.0 | 16.0 | 0.00 | 0.00 | 0.00 | 65 | 1027.5 |
| 20260831161532 | 77 | 29 | 13.0 | 16.0 | 0.00 | 0.00 | 0.00 | 71 | 1027.4 |
| 20260831161028 | 76 | 29 | 13.0 | 16.0 | 0.00 | 0.00 | 0.00 | 69 | 1027.6 |
| 20260831160527 | 76 | 29 | 13.0 | 16.0 | 0.00 | 0.00 | 0.00 | 72 | 1027.5 |
| 20260831160023 | 76 | 29 | 13.0 | 16.0 | 0.00 | 0.00 | 0.00 | 69 | 1027.5 |
| 20260831155517 | 77 | 29 | 13.0 | 16.0 | 0.00 | 0.00 | 0.00 | 69 | 1027.5 |
| 20260831155012 | 76 | 29 | 13.0 | 16.0 | 0.00 | 0.00 | 0.00 | 69 | 1027.4 |
| 20260831154510 | 75 | 29 | 13.0 | 16.0 | 0.00 | 0.00 | 0.00 | 71 | 1027.5 |
| 20260831154009 | 75 | 29 | 13.0 | 16.0 | 0.00 | 0.00 | 0.00 | 68 | 1027.5 |
| 20260831153508 | 75 | 29 | 13.0 | 16.0 | 0.00 | 0.00 | 0.00 | 78 | 1027.5 |
| 20260831153006 | 74 | 29 | 13.0 | 16.0 | 0.00 | 0.00 | 0.00 | 75 | 1027.4 |
| 20260831152500 | 73 | 29 | 13.0 | 16.0 | 0.00 | 0.00 | 0.00 | 79 | 1027.7 |
| 20260831151955 | 74 | 29 | 13.0 | 16.0 | 0.00 | 0.00 | 0.00 | 74 | 1027.7 |
| 20260831151455 | 73 | 29 | 13.0 | 16.0 | 0.00 | 0.00 | 0.00 | 76 | 1027.6 |
| 20260831150950 | 74 | 29 | 13.0 | 16.0 | 0.00 | 0.00 | 0.00 | 77 | 1027.7 |
| 20260831150445 | 74 | 29 | 13.0 | 16.0 | 0.00 | 0.00 | 0.00 | 80 | 1027.6 |
| 20260831145945 | 73 | 29 | 13.0 | 16.0 | 0.00 | 0.00 | 0.00 | 77 | 1027.7 |
| 20260831145441 | 73 | 29 | 13.0 | 16.0 | 0.00 | 0.00 | 0.00 | 72 | 1027.6 |
| 20260831144937 | 74 | 29 | 13.0 | 16.0 | 0.00 | 0.00 | 0.00 | 74 | 1027.5 |
| 20260831144432 | 73 | 29 | 13.0 | 16.0 | 0.00 | 0.00 | 0.00 | 79 | 1027.4 |
| 20260831143927 | 72 | 29 | 13.0 | 16.0 | 0.00 | 0.00 | 0.00 | 76 | 1027.7 |
| 20260831143422 | 72 | 29 | 13.0 | 16.0 | 0.00 | 0.00 | 0.00 | 80 | 1027.6 |
| 20260831142918 | 72 | 29 | 13.0 | 16.0 | 0.00 | 0.00 | 0.00 | 81 | 1027.6 |
| 20260831142414 | 71 | 29 | 13.0 | 16.0 | 0.00 | 0.00 | 0.00 | 79 | 1027.6 |
| 20260831141908 | 71 | 29 | 13.0 | 16.0 | 0.00 | 0.00 | 0.00 | 80 | 1027.6 |
| 20260831141402 | 71 | 29 | 13.0 | 16.0 | 0.00 | 0.00 | 0.00 | 86 | 1027.5 |
| 20260831140857 | 71 | 29 | 13.0 | 16.0 | 0.00 | 0.00 | 0.00 | 84 | 1027.6 |
| 20260831140351 | 70 | 29 | 13.0 | 16.0 | 0.00 | 0.00 | 0.00 | 81 | 1027.5 |
| 20260831135850 | 70 | 29 | 13.0 | 16.0 | 0.00 | 0.00 | 0.00 | 86 | 1027.3 |
| 20260831135345 | 69 | 29 | 13.0 | 16.0 | 0.00 | 0.00 | 0.00 | 85 | 1027.4 |
| 20260831134840 | 69 | 29 | 13.0 | 16.0 | 0.00 | 0.00 | 0.00 | 88 | 1027.5 |
| 20260831134337 | 69 | 29 | 13.0 | 16.0 | 0.00 | 0.00 | 0.00 | 90 | 1027.4 |
| 20260831133836 | 68 | 29 | 13.0 | 16.0 | 0.00 | 0.00 | 0.00 | 89 | 1027.5 |
| 20260831133336 | 68 | 29 | 13.0 | 16.0 | 0.00 | 0.00 | 0.00 | 92 | 1027.7 |
| 20260831132831 | 67 | 29 | 13.0 | 16.0 | 0.00 | 0.00 | 0.00 | 93 | 1027.6 |
| 20260831132326 | 67 | 29 | 13.0 | 16.0 | 0.00 | 0.00 | 0.00 | 92 | 1027.5 |
| 20260831131826 | 67 | 29 | 13.0 | 16.0 | 0.00 | 0.00 | 0.00 | 94 | 1027.5 |
| 20260831131322 | 67 | 29 | 13.0 | 16.0 | 0.00 | 0.00 | 0.00 | 94 | 1027.5 |
| 20260831130817 | 67 | 29 | 13.0 | 16.0 | 0.00 | 0.00 | 0.00 | 95 | 1027.4 |
| 20260831130313 | 66 | 29 | 13.0 | 16.0 | 0.00 | 0.00 | 0.00 | 96 | 1027.4 |
| 20260831125812 | 66 | 29 | 13.0 | 16.0 | 0.00 | 0.00 | 0.00 | 96 | 1027.3 |
| 20260831125307 | 66 | 29 | 13.0 | 16.0 | 0.00 | 0.00 | 0.00 | 97 | 1027.3 |
| 20260831124807 | 65 | 29 | 13.0 | 16.0 | 0.00 | 0.00 | 0.00 | 97 | 1027.1 |
| 20260831124304 | 64 | 29 | 13.0 | 16.0 | 0.00 | 0.00 | 0.00 | 98 | 1027.4 |
| 20260831123803 | 64 | 29 | 13.0 | 16.0 | 0.00 | 0.00 | 0.00 | 99 | 1027.6 |
| 20260831123302 | 64 | 29 | 13.0 | 16.0 | 0.00 | 0.00 | 0.00 | 99 | 1027.5 |
| 20260831122757 | 64 | 29 | 13.0 | 16.0 | 0.00 | 0.00 | 0.00 | 99 | 1027.4 |
| 20260831122253 | 64 | 29 | 13.0 | 16.0 | 0.00 | 0.00 | 0.00 | 99 | 1027.5 |
| 20260831121752 | 64 | 29 | 13.0 | 16.0 | 0.00 | 0.00 | 0.00 | 99 | 1027.7 |
| 20260831121249 | 64 | 29 | 13.0 | 16.0 | 0.00 | 0.00 | 0.00 | 99 | 1027.6 |
| 20260831120744 | 64 | 29 | 13.0 | 16.0 | 0.00 | 0.00 | 0.00 | 99 | 1027.4 |
| 20260831120238 | 63 | 29 | 13.0 | 16.0 | 0.00 | 0.00 | 0.00 | 99 | 1027.4 |
| 20260831115734 | 63 | 29 | 13.0 | 16.0 | 0.00 | 0.00 | 0.00 | 99 | 1027.6 |
| 20260831115230 | 63 | 29 | 13.0 | 16.0 | 0.00 | 0.00 | 0.00 | 99 | 1027.4 |
| 20260831114729 | 63 | 29 | 13.0 | 16.0 | 0.00 | 0.00 | 0.00 | 99 | 1027.1 |
| 20260831114229 | 63 | 29 | 13.0 | 16.0 | 0.00 | 0.00 | 0.00 | 99 | 1027.1 |
| 20260831113724 | 63 | 29 | 13.0 | 16.0 | 0.00 | 0.00 | 0.00 | 99 | 1026.9 |
| 20260831113219 | 63 | 29 | 13.0 | 16.0 | 0.00 | 0.00 | 0.00 | 99 | 1027.3 |
| 20260831112718 | 62 | 29 | 13.0 | 16.0 | 0.00 | 0.00 | 0.00 | 99 | 1027.2 |
| 20260831112213 | 62 | 29 | 13.0 | 16.0 | 0.00 | 0.00 | 0.00 | 99 | 1027.2 |
| 20260831111708 | 62 | 29 | 13.0 | 16.0 | 0.00 | 0.00 | 0.00 | 99 | 1027.0 |
| 20260831111205 | 62 | 29 | 13.0 | 16.0 | 0.00 | 0.00 | 0.00 | 99 | 1027.2 |
| 20260831110701 | 62 | 29 | 13.0 | 16.0 | 0.00 | 0.00 | 0.00 | 99 | 1027.1 |
| 20260831110155 | 62 | 29 | 13.0 | 16.0 | 0.00 | 0.00 | 0.00 | 99 | 1026.9 |
| 20260831105654 | 62 | 29 | 13.0 | 16.0 | 0.00 | 0.00 | 0.00 | 99 | 1026.8 |
| 20260831105150 | 62 | 29 | 13.0 | 16.0 | 0.00 | 0.00 | 0.00 | 99 | 1026.7 |
| 20260831104645 | 62 | 29 | 13.0 | 16.0 | 0.00 | 0.00 | 0.00 | 99 | 1026.5 |
| 20260831104141 | 62 | 29 | 13.0 | 16.0 | 0.00 | 0.00 | 0.00 | 99 | 1026.6 |
| 20260831103636 | 62 | 29 | 13.0 | 16.0 | 0.00 | 0.00 | 0.00 | 99 | 1026.5 |
| 20260831103126 | 62 | 29 | 13.0 | 16.0 | 0.00 | 0.00 | 0.00 | 99 | 1026.5 |
| 20260831102626 | 62 | 29 | 13.0 | 16.0 | 0.00 | 0.00 | 0.00 | 99 | 1026.4 |
| 20260831102121 | 62 | 29 | 13.0 | 16.0 | 0.00 | 0.00 | 0.00 | 99 | 1026.4 |
| 20260831101621 | 62 | 29 | 13.0 | 16.0 | 0.00 | 0.00 | 0.00 | 99 | 1026.2 |
| 20260831101117 | 62 | 29 | 13.0 | 16.0 | 0.00 | 0.00 | 0.00 | 99 | 1026.2 |
| 20260831100613 | 62 | 29 | 13.0 | 16.0 | 0.00 | 0.00 | 0.00 | 99 | 1026.0 |
| 20260831100104 | 62 | 29 | 13.0 | 16.0 | 0.00 | 0.00 | 0.00 | 99 | 1026.0 |
| 20260831095602 | 62 | 29 | 13.0 | 16.0 | 0.00 | 0.00 | 0.00 | 99 | 1025.9 |
| 20260831095056 | 62 | 29 | 13.0 | 16.0 | 0.00 | 0.00 | 0.00 | 99 | 1026.2 |
| 20260831094552 | 62 | 29 | 13.0 | 16.0 | 0.00 | 0.00 | 0.00 | 99 | 1026.0 |
| 20260831094048 | 62 | 29 | 13.0 | 16.0 | 0.00 | 0.00 | 0.00 | 99 | 1026.3 |
| 20260831093542 | 62 | 29 | 13.0 | 16.0 | 0.00 | 0.00 | 0.00 | 99 | 1026.4 |
| 20260831093039 | 63 | 29 | 13.0 | 16.0 | 0.00 | 0.00 | 0.00 | 99 | 1026.2 |
| 20260831092534 | 62 | 29 | 13.0 | 16.0 | 0.00 | 0.00 | 0.00 | 99 | 1026.2 |
| 20260831092030 | 63 | 29 | 13.0 | 16.0 | 0.00 | 0.00 | 0.00 | 99 | 1026.2 |
| 20260831091525 | 63 | 29 | 13.0 | 16.0 | 0.00 | 0.00 | 0.00 | 99 | 1026.3 |
| 20260831091020 | 63 | 29 | 13.0 | 16.0 | 0.00 | 0.00 | 0.00 | 99 | 1026.0 |
| 20260831090515 | 63 | 29 | 13.0 | 16.0 | 0.00 | 0.00 | 0.00 | 99 | 1026.2 |
| 20260831090011 | 63 | 29 | 13.0 | 16.0 | 0.00 | 0.00 | 0.00 | 99 | 1026.2 |
| 20260831085507 | 63 | 29 | 13.0 | 16.0 | 0.00 | 0.00 | 0.00 | 99 | 1026.2 |
| 20260831085006 | 62 | 29 | 13.0 | 16.0 | 0.00 | 0.00 | 0.00 | 99 | 1026.2 |
| 20260831084503 | 62 | 29 | 13.0 | 16.0 | 0.00 | 0.00 | 0.00 | 99 | 1026.3 |
| 20260831083959 | 62 | 29 | 13.0 | 16.0 | 0.00 | 0.00 | 0.00 | 99 | 1026.4 |
| 20260831083454 | 62 | 29 | 13.0 | 16.0 | 0.00 | 0.00 | 0.00 | 99 | 1026.0 |
| 20260831082953 | 62 | 29 | 13.0 | 16.0 | 0.00 | 0.00 | 0.00 | 99 | 1026.3 |
| 20260831082448 | 62 | 29 | 13.0 | 16.0 | 0.00 | 0.00 | 0.00 | 99 | 1026.2 |
| 20260831081943 | 63 | 29 | 13.0 | 16.0 | 0.00 | 0.00 | 0.00 | 99 | 1026.3 |
| 20260831081438 | 63 | 29 | 13.0 | 16.0 | 0.00 | 0.00 | 0.00 | 99 | 1026.0 |
| 20260831080934 | 63 | 29 | 13.0 | 16.0 | 0.00 | 0.00 | 0.00 | 99 | 1026.0 |
| 20260831080429 | 63 | 29 | 13.0 | 16.0 | 0.00 | 0.00 | 0.00 | 99 | 1026.2 |
| 20260831075924 | 63 | 29 | 13.0 | 16.0 | 0.00 | 0.00 | 0.00 | 99 | 1026.3 |
| 20260831075420 | 63 | 29 | 13.0 | 16.0 | 0.00 | 0.00 | 0.00 | 99 | 1026.2 |
| 20260831074915 | 63 | 29 | 13.0 | 16.0 | 0.00 | 0.00 | 0.00 | 99 | 1026.3 |
| 20260831074414 | 63 | 29 | 13.0 | 16.0 | 0.00 | 0.00 | 0.00 | 99 | 1026.2 |
| 20260831073909 | 63 | 29 | 13.0 | 16.0 | 0.00 | 0.00 | 0.00 | 99 | 1026.2 |
| 20260831073408 | 63 | 29 | 13.0 | 16.0 | 0.00 | 0.00 | 0.00 | 99 | 1026.2 |
| 20260831072903 | 63 | 29 | 13.0 | 16.0 | 0.00 | 0.00 | 0.00 | 99 | 1025.9 |
| 20260831072359 | 63 | 29 | 13.0 | 16.0 | 0.00 | 0.00 | 0.00 | 99 | 1026.0 |
| 20260831071855 | 64 | 29 | 13.0 | 16.0 | 0.00 | 0.00 | 0.00 | 99 | 1025.9 |
| 20260831071354 | 64 | 29 | 13.0 | 16.0 | 0.00 | 0.00 | 0.00 | 99 | 1026.4 |
| 20260831070849 | 64 | 29 | 13.0 | 16.0 | 0.00 | 0.00 | 0.00 | 99 | 1025.9 |
| 20260831070348 | 64 | 29 | 13.0 | 16.0 | 0.00 | 0.00 | 0.00 | 99 | 1026.0 |
| 20260831065847 | 64 | 29 | 13.0 | 16.0 | 0.00 | 0.00 | 0.00 | 99 | 1026.0 |
| 20260831065345 | 64 | 29 | 13.0 | 16.0 | 0.00 | 0.00 | 0.00 | 99 | 1026.0 |
| 20260831064840 | 64 | 29 | 13.0 | 16.0 | 0.00 | 0.00 | 0.00 | 99 | 1026.0 |
| 20260831064336 | 64 | 29 | 13.0 | 16.0 | 0.00 | 0.00 | 0.00 | 99 | 1026.0 |
| 20260831063832 | 64 | 29 | 13.0 | 16.0 | 0.00 | 0.00 | 0.00 | 99 | 1025.8 |
| 20260831063326 | 64 | 29 | 13.0 | 16.0 | 0.00 | 0.00 | 0.00 | 99 | 1025.8 |
| 20260831062820 | 64 | 29 | 13.0 | 16.0 | 0.00 | 0.00 | 0.00 | 99 | 1026.0 |
| 20260831062316 | 65 | 29 | 13.0 | 16.0 | 0.00 | 0.00 | 0.00 | 99 | 1025.9 |
| 20260831061814 | 65 | 29 | 13.0 | 16.0 | 0.00 | 0.00 | 0.00 | 99 | 1025.9 |
| 20260831061309 | 65 | 29 | 13.0 | 16.0 | 0.00 | 0.00 | 0.00 | 99 | 1025.9 |
| 20260831060805 | 65 | 29 | 13.0 | 16.0 | 0.00 | 0.00 | 0.00 | 99 | 1026.0 |
| 20260831060305 | 65 | 29 | 13.0 | 16.0 | 0.00 | 0.00 | 0.00 | 99 | 1025.9 |
| 20260831055804 | 66 | 29 | 13.0 | 16.0 | 0.00 | 0.00 | 0.00 | 99 | 1025.9 |
| 20260831055259 | 66 | 29 | 13.0 | 16.0 | 0.00 | 0.00 | 0.00 | 99 | 1025.6 |
| 20260831054754 | 66 | 29 | 13.0 | 16.0 | 0.00 | 0.00 | 0.00 | 99 | 1025.8 |
| 20260831054255 | 66 | 29 | 13.0 | 16.0 | 0.00 | 0.00 | 0.00 | 99 | 1025.7 |
| 20260831053753 | 66 | 29 | 13.0 | 16.0 | 0.00 | 0.00 | 0.00 | 99 | 1025.6 |
| 20260831053252 | 66 | 29 | 13.0 | 16.0 | 0.00 | 0.00 | 0.00 | 99 | 1025.7 |
| 20260831052747 | 66 | 29 | 13.0 | 16.0 | 0.00 | 0.00 | 0.00 | 99 | 1025.8 |
| 20260831052246 | 66 | 29 | 13.0 | 16.0 | 0.00 | 0.00 | 0.00 | 99 | 1025.5 |
| 20260831051744 | 67 | 29 | 13.0 | 16.0 | 0.00 | 0.00 | 0.00 | 99 | 1025.5 |
| 20260831051243 | 67 | 29 | 13.0 | 16.0 | 0.00 | 0.00 | 0.00 | 99 | 1025.4 |
| 20260831050738 | 67 | 29 | 13.0 | 16.0 | 0.00 | 0.00 | 0.00 | 99 | 1025.4 |
| 20260831050237 | 67 | 29 | 13.0 | 16.0 | 0.00 | 0.00 | 0.00 | 99 | 1025.5 |
| 20260831045732 | 67 | 29 | 13.0 | 16.0 | 0.00 | 0.00 | 0.00 | 99 | 1025.5 |
| 20260831045227 | 67 | 29 | 13.0 | 16.0 | 0.00 | 0.00 | 0.00 | 99 | 1025.4 |
| 20260831044721 | 67 | 29 | 13.0 | 16.0 | 0.00 | 0.00 | 0.00 | 99 | 1025.5 |
| 20260831044211 | 68 | 29 | 13.0 | 16.0 | 0.00 | 0.00 | 0.00 | 99 | 1025.6 |
| 20260831043707 | 68 | 29 | 13.0 | 16.0 | 0.00 | 0.00 | 0.00 | 99 | 1025.5 |
| 20260831043202 | 68 | 29 | 13.0 | 16.0 | 0.00 | 0.00 | 0.00 | 99 | 1025.4 |
| 20260831042701 | 68 | 29 | 13.0 | 16.0 | 0.00 | 0.00 | 0.00 | 99 | 1025.4 |
| 20260831042156 | 68 | 29 | 13.0 | 16.0 | 0.00 | 0.00 | 0.00 | 99 | 1025.3 |
| 20260831041650 | 68 | 29 | 13.0 | 16.0 | 0.00 | 0.00 | 0.00 | 99 | 1025.2 |
| 20260831041145 | 68 | 29 | 13.0 | 16.0 | 0.00 | 0.00 | 0.00 | 99 | 1025.3 |
| 20260831040640 | 68 | 29 | 13.0 | 16.0 | 0.00 | 0.00 | 0.00 | 99 | 1025.3 |
| 20260831040139 | 68 | 29 | 13.0 | 16.0 | 0.00 | 0.00 | 0.00 | 99 | 1025.5 |
| 20260831035638 | 68 | 29 | 13.0 | 16.0 | 0.00 | 0.04 | 0.04 | 99 | 1025.5 |
| 20260831035137 | 68 | 29 | 13.0 | 16.0 | 0.02 | 0.04 | 0.04 | 99 | 1025.5 |
| 20260831034636 | 68 | 29 | 13.0 | 16.0 | 0.02 | 0.04 | 0.04 | 99 | 1025.6 |
| 20260831034132 | 68 | 29 | 13.0 | 16.0 | 0.00 | 0.04 | 0.04 | 99 | 1025.6 |
| 20260831033627 | 68 | 29 | 13.0 | 16.0 | 0.00 | 0.04 | 0.04 | 99 | 1025.7 |
| 20260831033123 | 68 | 29 | 13.0 | 16.0 | 0.00 | 0.04 | 0.04 | 99 | 1025.6 |
| 20260831032622 | 68 | 29 | 13.0 | 16.0 | 0.00 | 0.04 | 0.04 | 99 | 1025.7 |
| 20260831032118 | 69 | 29 | 13.0 | 16.0 | 0.00 | 0.04 | 0.04 | 99 | 1025.7 |
| 20260831031618 | 69 | 29 | 13.0 | 16.0 | 0.00 | 0.04 | 0.04 | 99 | 1025.8 |
| 20260831031117 | 69 | 29 | 13.0 | 16.0 | 0.00 | 0.04 | 0.04 | 99 | 1025.8 |
| 20260831030616 | 69 | 29 | 13.0 | 16.0 | 0.00 | 0.04 | 0.04 | 99 | 1025.9 |
| 20260831030116 | 69 | 29 | 13.0 | 16.0 | 0.00 | 0.04 | 0.04 | 99 | 1025.7 |
| 20260831025614 | 69 | 29 | 13.0 | 16.0 | 0.00 | 0.04 | 0.04 | 99 | 1025.9 |
| 20260831025109 | 69 | 29 | 13.0 | 16.0 | 0.00 | 0.04 | 0.04 | 99 | 1025.9 |
| 20260831024606 | 69 | 29 | 13.0 | 16.0 | 0.02 | 0.04 | 0.04 | 99 | 1025.9 |
| 20260831024104 | 69 | 29 | 13.0 | 16.0 | 0.02 | 0.04 | 0.04 | 99 | 1025.9 |
| 20260831023602 | 69 | 29 | 13.0 | 16.0 | 0.00 | 0.03 | 0.03 | 99 | 1026.2 |
| 20260831023057 | 69 | 29 | 13.0 | 16.0 | 0.00 | 0.03 | 0.03 | 99 | 1026.0 |
| 20260831022556 | 69 | 29 | 13.0 | 16.0 | 0.02 | 0.03 | 0.03 | 99 | 1025.9 |
| 20260831022052 | 69 | 29 | 13.0 | 16.0 | 0.02 | 0.03 | 0.03 | 99 | 1025.9 |
| 20260831021550 | 69 | 29 | 13.0 | 16.0 | 0.02 | 0.03 | 0.03 | 99 | 1026.2 |
| 20260831021047 | 69 | 29 | 13.0 | 16.0 | 0.02 | 0.03 | 0.03 | 99 | 1025.9 |
| 20260831020542 | 69 | 29 | 13.0 | 16.0 | 0.00 | 0.02 | 0.02 | 99 | 1026.0 |
| 20260831020037 | 69 | 29 | 13.0 | 16.0 | 0.00 | 0.02 | 0.02 | 99 | 1026.0 |
| 20260831015532 | 69 | 29 | 13.0 | 16.0 | 0.00 | 0.02 | 0.02 | 99 | 1025.7 |
| 20260831015027 | 69 | 29 | 13.0 | 16.0 | 0.00 | 0.02 | 0.02 | 99 | 1025.8 |
| 20260831014522 | 70 | 29 | 13.0 | 16.0 | 0.00 | 0.02 | 0.02 | 99 | 1025.7 |
| 20260831014018 | 70 | 29 | 13.0 | 16.0 | 0.00 | 0.02 | 0.02 | 99 | 1025.5 |
| 20260831013514 | 70 | 29 | 13.0 | 16.0 | 0.00 | 0.02 | 0.02 | 99 | 1025.5 |
| 20260831013008 | 70 | 29 | 13.0 | 16.0 | 0.00 | 0.02 | 0.02 | 99 | 1025.4 |
| 20260831012503 | 70 | 29 | 13.0 | 16.0 | 0.00 | 0.02 | 0.02 | 99 | 1025.5 |
| 20260831012002 | 70 | 29 | 13.0 | 16.0 | 0.00 | 0.02 | 0.02 | 98 | 1025.6 |
| 20260831011456 | 70 | 29 | 13.0 | 16.0 | 0.00 | 0.02 | 0.02 | 98 | 1025.4 |
| 20260831010953 | 70 | 29 | 13.0 | 16.0 | 0.02 | 0.02 | 0.02 | 98 | 1025.3 |
| 20260831010452 | 70 | 29 | 13.0 | 16.0 | 0.02 | 0.02 | 0.02 | 98 | 1025.7 |
| 20260831005948 | 70 | 29 | 13.0 | 16.0 | 0.02 | 0.02 | 0.02 | 97 | 1025.4 |
| 20260831005444 | 70 | 29 | 13.0 | 16.0 | 0.05 | 0.02 | 0.02 | 97 | 1025.3 |
| 20260831004943 | 70 | 29 | 13.0 | 16.0 | 0.02 | 0.02 | 0.02 | 97 | 1025.3 |
| 20260831004440 | 70 | 29 | 13.0 | 16.0 | 0.05 | 0.01 | 0.01 | 96 | 1025.4 |
| 20260831003935 | 70 | 29 | 13.0 | 16.0 | 0.05 | 0.01 | 0.01 | 96 | 1025.4 |
| 20260831003431 | 71 | 29 | 13.0 | 16.0 | 0.02 | 0.00 | 0.00 | 96 | 1025.5 |
| 20260831002926 | 71 | 29 | 13.0 | 16.0 | 0.00 | 0.00 | 0.00 | 95 | 1025.3 |
| 20260831002424 | 71 | 29 | 13.0 | 16.0 | 0.00 | 0.00 | 0.00 | 95 | 1025.3 |
| 20260831001920 | 71 | 29 | 13.0 | 16.0 | 0.00 | 0.00 | 0.00 | 94 | 1025.1 |
| 20260831001415 | 71 | 29 | 13.0 | 16.0 | 0.00 | 0.00 | 0.00 | 94 | 1025.1 |
| 20260831000913 | 71 | 29 | 13.0 | 16.0 | 0.00 | 0.00 | 0.00 | 93 | 1025.1 |
| 20260831000410 | 71 | 29 | 13.0 | 16.0 | 0.00 | 0.00 | 0.00 | 93 | 1025.1 |
| 20260830235906 | 71 | 29 | 13.0 | 16.0 | 0.00 | 0.00 | 0.00 | 93 | 1025.0 |
| 20260830235401 | 71 | 29 | 13.0 | 16.0 | 0.00 | 0.00 | 0.00 | 93 | 1024.8 |
| 20260830234856 | 71 | 29 | 13.0 | 16.0 | 0.00 | 0.00 | 0.00 | 92 | 1024.9 |
| 20260830234352 | 71 | 29 | 13.0 | 16.0 | 0.00 | 0.00 | 0.00 | 92 | 1024.8 |
| 20260830233848 | 72 | 29 | 13.0 | 16.0 | 0.00 | 0.00 | 0.00 | 91 | 1024.5 |
| 20260830233343 | 72 | 29 | 13.0 | 16.0 | 0.00 | 0.00 | 0.00 | 91 | 1024.6 |
| 20260830232838 | 72 | 29 | 13.0 | 16.0 | 0.00 | 0.00 | 0.00 | 91 | 1024.7 |
| 20260830232334 | 72 | 29 | 13.0 | 16.0 | 0.00 | 0.00 | 0.00 | 91 | 1024.7 |
| 20260830231831 | 72 | 29 | 13.0 | 16.0 | 0.00 | 0.00 | 0.00 | 92 | 1024.6 |
| 20260830231330 | 72 | 29 | 13.0 | 16.0 | 0.00 | 0.00 | 0.00 | 92 | 1024.6 |
| 20260830230830 | 72 | 29 | 13.0 | 16.0 | 0.00 | 0.00 | 0.00 | 91 | 1024.6 |
| 20260830230325 | 72 | 29 | 13.0 | 16.0 | 0.00 | 0.00 | 0.00 | 91 | 1024.5 |
| 20260830225825 | 72 | 29 | 13.0 | 16.0 | 0.00 | 0.00 | 0.00 | 91 | 1024.5 |
| 20260830225320 | 72 | 29 | 13.0 | 16.0 | 0.00 | 0.00 | 0.00 | 91 | 1024.8 |
| 20260830224820 | 72 | 29 | 13.0 | 16.0 | 0.00 | 0.00 | 0.00 | 90 | 1024.9 |
| 20260830224315 | 73 | 29 | 13.0 | 16.0 | 0.00 | 0.00 | 0.00 | 90 | 1024.8 |
| 20260830223811 | 73 | 29 | 13.0 | 16.0 | 0.00 | 0.00 | 0.00 | 90 | 1024.9 |
| 20260830223307 | 73 | 29 | 13.0 | 16.0 | 0.00 | 0.00 | 0.00 | 90 | 1024.7 |
| 20260830222801 | 73 | 29 | 13.0 | 16.0 | 0.00 | 0.00 | 0.00 | 89 | 1024.7 |
| 20260830222257 | 73 | 29 | 13.0 | 16.0 | 0.00 | 0.00 | 0.00 | 88 | 1024.8 |
| 20260830221752 | 74 | 29 | 13.0 | 16.0 | 0.00 | 0.00 | 0.00 | 88 | 1024.7 |
| 20260830221249 | 74 | 29 | 13.0 | 16.0 | 0.00 | 0.00 | 0.00 | 87 | 1024.7 |
| 20260830220743 | 74 | 29 | 13.0 | 16.0 | 0.00 | 0.00 | 0.00 | 87 | 1024.7 |
| 20260830220242 | 74 | 29 | 13.0 | 16.0 | 0.00 | 0.00 | 0.00 | 87 | 1025.0 |
| 20260830215741 | 73 | 29 | 13.0 | 16.0 | 0.00 | 0.00 | 0.00 | 87 | 1024.8 |
| 20260830215236 | 73 | 29 | 13.0 | 16.0 | 0.00 | 0.00 | 0.00 | 87 | 1024.8 |
| 20260830214731 | 73 | 29 | 13.0 | 16.0 | 0.00 | 0.00 | 0.00 | 86 | 1024.9 |
| 20260830214231 | 73 | 29 | 13.0 | 16.0 | 0.00 | 0.00 | 0.00 | 86 | 1024.9 |